|  Orbital Elements
Epoch 2011 Dec. 25.0 TT = JDT 2455920.5
T 2011 Dec. 31.89365 TT                                 MPCW
q   5.4548560            (2000.0)            P               Q
z  -0.0002878      Peri.  260.38353     +0.04749649     +0.61014536
 +/-0.0000002      Node    53.58446     +0.16282529     +0.77643868
e   1.0015699      Incl.   79.34759     -0.98551104     +0.15768836
From 1037 observations 2009 Mar. 19-2015 Aug. 20, mean residual 0".5.
 
 |